Miscellaneous Local Product
Issued by NWS North Platte, NE

Home | Current Version | Previous Version | Graphics & Text | Print | Product List | Glossary On
Versions: 1 2 3 4 5 6 7 8 9 10 11 12 13 14 15 16 17 18 19 20 21 22 23 24 25 26 27 28 29 30 31 32 33 34 35 36 37 38 39 40 41 42 43 44 45 46 47 48 49 50
000
AXUS43 KLBF 160710
MISLBF


WESTERN AND NORTH CENTRAL NEBRASKA HOURLY WEATHER ROUNDUP
NATIONAL WEATHER SERVICE NORTH PLATTE NE
100 AM CST TUE DEC 16 2014

***STATIONS NOT REPORTING VARIABLES SUCH AS SKY/WEATHER OR
PRESSURE ARE PROVIDED BY THE NEBRASKA DEPARTMENT OF
ROADS...RAWS...AND APRS NETWORKS...AND ARE NOT UNDER
NATIONAL WEATHER SERVICE QUALITY CONTROL***

...OBSERVATIONS IN AND NEAR THE EASTERN PANHANDLE OF NEBRASKA...

CITY           SKY/WX    TMP DP  RH WIND       PRES   REMARKS
PINE RIDGE     CLOUDY    22  17  81 N8        30.24F WCI  12
CHADRON        CLOUDY    22  17  81 CALM      30.25F
ALLIANCE       CLOUDY    20  18  92 N12       30.20F WCI   8
SIDNEY         MOCLDY    12   9  87 W14       30.22R WCI  -3
WHITECLAY        N/A     21  17  83 N6          N/A  WCI  13
CRESCENT LAKE    N/A     19  17  90 N12G20      N/A  WCI   7
LISCO            N/A     17  13  82 W7          N/A  WCI   8
BIG SPRINGS      N/A     15  13  92 SW6         N/A  WCI   6
$$

...OBSERVATIONS IN NORTH CENTRAL NEBRASKA...

CITY           SKY/WX    TMP DP  RH WIND       PRES   REMARKS
VALENTINE      CLOUDY    22  17  81 N14G24    30.24S WCI   9
THEDFORD       CLOUDY    23  19  86 N22G28    30.22F WCI   8
AINSWORTH      CLOUDY    22  19  89 NW16      30.22S WCI   8
O`NEILL        CLOUDY    23  21  94 NW10      30.20R WCI  12
ORD            CLOUDY    23  19  85 NW31G39   30.18R BLWGSNOWWCI   5
BROKEN BOW     CLOUDY    24  21  88 N25G32    30.19R WCI   8
BROWNLEE         N/A     20  17  86 CALM        N/A
SPRINGVIEW       N/A     23  19  85 NW10G20     N/A  WCI  12
BREWSTER         N/A     27  23  86 W10         N/A  WCI  17
ROSE             N/A     28  28 100 W3          N/A
SARGENT          N/A     24  22  91 NW8G20      N/A  WCI  15
COMSTOCK         N/A     30  25  83 NW18        N/A  WCI  17
EWING            N/A     22  21  94 CALM        N/A
$$

...OBSERVATIONS IN SOUTHWEST NEBRASKA AND FAR NORTHEAST COLORADO...

CITY           SKY/WX    TMP DP  RH WIND       PRES   REMARKS
WRAY           FAIR      19  16  90 N13       30.21F WCI   6
IMPERIAL       PTCLDY    19  14  81 NW8       30.25R WCI   9
OGALLALA       PTCLDY    20  18  89 N6        30.22S WCI  13
NORTH PLATTE   CLOUDY    23  17  78 N21G29    30.22F WCI   8
MCCOOK         CLEAR     24  18  77 N17       30.22F WCI  11
LEXINGTON      CLOUDY    26  21  82 N21G30    30.22R WCI  12
PAXTON           N/A     23  20  87 N5          N/A  WCI  17
BRADY            N/A     22  17  82 SW5G12      N/A  WCI  16
GOTHENBURG       N/A     24  19  81 NW12        N/A  WCI  13
CALLAWAY         N/A     22  19  88 N9          N/A  WCI  12
$$

...NORTH PLATTE AREA...

CITY           SKY/WX    TMP DP  RH WIND       PRES   REMARKS
AIRPORT        CLOUDY    23  17  78 N21G29    30.22F WCI   8
DOWNTOWN         N/A     23  18  81 N12G18      N/A  WCI  12
$$

...SOME WEATHER OBSERVATIONS FROM AROUND THE REGION...

CITY           SKY/WX    TMP DP  RH WIND       PRES   REMARKS
DENVER         PTCLDY    18  14  84 S13       30.18S WCI   5
LARAMIE        MOCLDY     1  -2  87 S8        30.11F WCI -13
CHEYENNE       PTCLDY    19  11  70 CALM      30.13F
SCOTTSBLUFF    PTCLDY    11   9  92 N6        30.23S WCI   1
RAPID CITY     CLOUDY    22  18  85 N13       30.24S WCI  10
PIERRE         CLOUDY    23  18  81 N20       30.26S WCI   8
SIOUX FALLS    CLOUDY    20  15  81 N29G41    30.08R BLWGSNOWWCI   1
OMAHA          CLOUDY    27  21  78 NW25G37   30.04R WCI  12
GRAND ISLAND   CLOUDY    25  20  81 N25G38    30.17R WCI   9
KANSAS CITY    FRZ DRZL  31  26  82 NW15G30   29.97R WCI  20
WICHITA        MOCLDY    33  22  63 N25G38    30.12R WCI  20
HAYS           CLOUDY    30  18  59 N21G29    30.18R WCI  17
LIBERAL        CLEAR     28  21  74 NW13      30.25F WCI  18
GOODLAND       CLEAR     22  19  89 N13       30.22R WCI  10
$$



USA.gov is the U.S. government's official web portal to all federal, state and local government web resources and services.